Wetbulb
40.48 44.00 46.40 45.59 46.78 47.10 43.44 41.95 41.29 44.07 45.76 47.64 50.27 53.67 53.12 54.77 58.25 61.63 61.25 62.21 63.94 64.23 64.74 65.44 65.46 66.18 66.39 66.14 65.96 66.37 66.89 66.96 67.09 67.14 68.22 68.87 69.54 69.97 70.04 69.95 70.10 69.96 70.20 70.85
40.68 46.77 47.13 45.46 47.89 48.05 47.27 47.02 46.79 47.48 47.11 49.22 52.38 53.47 53.64 56.32 59.12 61.02 62.20 63.40 63.92 64.20 64.47 64.38 66.00 66.48 67.02 67.27 66.93 66.64 65.90 66.49 65.64 64.66 65.98 67.91 68.29 68.90 69.35 70.12 70.28 70.54 70.37 70.71
36.96 41.59 44.32 41.10 45.91 46.63 46.87 48.01 48.64 45.47 49.07 51.53 51.80 55.04 56.82 58.35 60.06 60.27 61.74 64.13 63.79 63.71 63.19 63.91 64.28 65.60 65.03 66.12 67.75 66.39 66.19 66.44 66.96 66.02 64.79 64.44 67.37 68.47 68.94 69.19 68.76 69.68 70.15 69.86
36.31 37.67 32.85 41.67 48.27 50.74 49.76 51.21 51.88 52.34 52.66 53.69 55.72 56.34 58.21 59.29 60.08 60.89 61.58 62.14 63.00 63.91 64.27 64.74 64.86 64.71 65.30 65.36 65.49 65.80 65.44 66.16 66.30 66.28 65.54 64.99 66.46 67.29 68.18 68.45 68.69 69.23 69.45 69.93
35.55 34.30 38.82 46.03 48.46 49.65 47.89 47.62 53.77 52.76 53.65 56.44 58.83 57.98 56.01 60.87 61.44 60.71 60.73 61.64 61.63 61.61 62.48 62.84 62.83 63.34 63.66 63.97 66.00 64.62 64.97 65.54 66.15 65.89 65.23 66.02 66.40 67.16 66.53 66.87 67.30 67.68 68.36 68.87
33.92 33.62 33.79 42.46 50.90 53.42 51.79 43.70 54.06 54.70 54.90 55.63 57.50 51.56 52.89 59.80 61.12 61.06 61.34 61.34 61.24 60.56 59.93 59.46 59.95 62.07 61.82 62.10 62.03 62.90 64.61 66.03 66.40 66.08 66.17 66.66 66.89 67.34 67.50 66.84 65.94 67.43 65.95 65.53
35.40 34.28 39.49 46.28 52.81 52.98 41.30 43.18 54.23 55.18 55.49 56.62 54.24 53.38 56.31 59.79 59.75 60.73 60.50 59.90 59.64 58.34 57.04 57.06 60.16 61.51 61.71 62.26 62.34 63.67 66.73 65.65 65.56 65.85 66.43 65.73 65.21 65.19 64.82 65.16 64.64 63.74 62.09 61.00
35.22 36.31 35.70 52.01 51.85 46.55 48.03 51.79 54.89 54.96 55.05 55.72 56.56 57.48 58.91 59.11 58.89 59.29 58.78 58.72 58.09 56.04 57.14 59.11 59.75 60.99 62.23 62.09 62.79 65.30 65.32 65.33 65.37 64.80 64.56 63.79 62.30 62.83 62.65 62.79 62.27 61.39 60.82 59.01
40.82 39.49 45.23 49.76 50.48 52.95 54.65 54.57 55.02 54.50 53.97 55.86 57.46 57.62 58.06 57.48 57.49 57.49 57.55 57.64 57.16 55.86 58.12 58.08 58.82 59.33 59.92 60.78 62.18 65.16 64.54 62.75 61.48 60.38 60.76 61.71 60.94 60.04 59.98 60.80 60.36 60.18 59.09 57.79
44.36 47.26 48.92 51.17 52.54 56.39 56.69 55.88 56.94 55.72 54.43 56.23 57.58 57.99 57.17 56.98 56.70 56.38 56.36 56.40 56.32 56.42 58.00 57.62 58.52 58.68 59.11 60.28 63.36 63.67 61.34 59.81 58.07 56.80 55.19 54.89 55.49 55.21 57.28 59.09 58.91 58.19 57.26 56.38
43.92 45.90 50.81 52.53 53.15 55.87 57.71 58.14 58.03 57.37 55.97 56.14 57.38 56.90 57.46 56.54 55.98 55.90 55.90 55.68 55.72 55.74 57.97 58.13 56.78 58.42 59.27 60.72 62.06 60.20 58.97 57.74 56.08 54.16 51.64 48.25 45.97 47.05 48.59 46.82 48.15 58.19 58.03 57.10
42.92 47.64 48.96 49.61 52.25 56.88 56.56 56.72 57.54 55.46 55.10 57.02 56.96 57.34 57.03 55.98 56.30 55.84 55.48 55.20 55.10 55.32 57.81 55.28 58.44 58.62 59.10 60.40 60.58 59.35 57.56 56.70 55.15 52.87 50.47 48.87 47.66 46.28 45.63 45.51 44.19 43.81 46.87 51.82
49.07 50.90 50.78 51.71 53.29 55.21 55.27 55.10 54.65 55.61 55.82 55.49 57.14 58.05 57.61 55.52 55.13 55.33 55.15 54.79 55.05 55.54 55.52 54.98 55.02 58.32 58.42 59.61 59.75 58.40 56.90 55.47 53.96 53.30 52.69 50.56 49.63 49.35 48.25 47.05 44.41 42.83 42.61 42.99
53.49 51.61 49.46 51.65 51.30 54.12 54.19 54.27 54.11 55.60 54.87 57.56 58.05 57.89 57.25 55.66 54.73 54.73 54.75 55.92 55.80 56.28 56.16 55.96 55.08 55.52 58.33 58.74 58.48 57.84 57.09 53.89 55.88 55.74 55.14 53.55 52.96 52.95 48.83 47.88 48.53 48.17 45.16 45.82
53.58 52.33 50.38 50.55 50.80 52.99 54.48 54.09 52.20 53.17 54.25 56.50 57.75 57.24 56.69 55.27 54.85 55.31 56.09 56.59 57.11 56.14 56.58 56.02 55.03 55.44 58.42 59.79 58.23 57.42 56.82 56.22 54.29 53.30 54.56 55.58 54.68 50.34 48.65 48.92 47.91 45.22 43.04 44.06
53.35 52.34 52.13 50.58 50.50 52.17 53.95 53.76 51.43 51.48 53.65 55.48 56.48 56.76 57.10 56.32 55.79 55.80 55.60 56.16 55.58 55.06 56.00 56.02 55.56 55.96 57.10 55.74 54.96 54.20 53.70 55.66 54.74 52.87 52.38 51.93 50.75 49.52 47.14 46.25 45.18 43.27 42.23 43.66
50.19 48.92 48.68 49.09 50.91 51.48 52.25 55.00 54.07 53.17 53.97 55.20 56.56 56.49 54.64 53.78 54.28 54.42 54.97 56.08 55.84 55.28 55.72 56.06 56.16 56.50 57.44 56.44 54.05 53.21 49.48 51.66 55.25 52.66 52.97 52.99 52.33 51.12 49.40 47.77 47.64 46.39 45.07 43.53
52.02 51.79 51.08 50.75 50.78 51.85 51.95 53.75 54.69 53.39 53.00 55.59 55.79 54.54 53.30 53.65 54.02 53.33 54.10 54.95 53.52 53.19 54.42 55.11 54.83 54.54 55.70 55.74 55.05 54.64 53.08 48.31 50.27 50.33 49.34 51.27 51.84 52.08 52.41 52.27 50.38 49.26 47.93 46.60
54.13 53.17 53.21 53.06 51.66 52.62 52.49 52.88 54.76 54.73 53.99 54.10 55.30 54.56 54.49 54.71 54.11 53.99 53.52 53.17 53.05 52.80 53.95 54.67 57.64 55.95 52.59 54.00 54.94 52.67 52.80 51.46 49.02 48.78 48.91 49.13 47.70 47.32 47.90 51.46 52.28 51.82 50.97 49.28
54.44 54.79 54.23 54.18 53.67 52.60 52.41 53.00 54.70 54.34 53.68 53.95 55.40 53.40 53.38 54.19 53.90 53.85 53.75 53.58 54.55 55.97 55.18 55.42 55.99 54.71 52.80 53.27 58.55 52.18 52.18 51.87 51.47 50.75 50.50 50.22 49.45 47.81 47.70 46.21 47.41 48.74 49.66 49.15
54.30 54.52 53.71 54.18 54.01 53.67 52.89 52.96 54.31 54.01 53.99 54.05 54.09 53.81 54.64 54.65 54.11 53.97 52.91 53.25 55.89 55.42 55.37 56.30 55.57 54.63 53.27 54.04 56.48 52.53 52.19 51.90 51.55 50.81 50.85 49.72 49.36 48.92 48.08 48.25 48.78 47.79 47.82 47.11
52.66 52.76 53.11 53.62 53.08 53.01 54.05 54.27 54.89 54.52 54.06 53.98 54.43 53.51 52.41 52.26 52.82 52.99 55.08 55.68 56.94 54.36 55.49 55.66 55.48 56.33 55.02 58.00 53.70 53.14 52.25 52.26 51.87 51.00 50.77 50.24 49.36 48.92 49.00 49.32 48.60 48.54 47.87 46.91
51.68 52.45 52.50 51.95 51.89 53.22 54.02 54.36 55.13 54.88 54.01 54.16 54.16 53.75 54.21 54.68 54.66 52.69 52.32 55.12 54.76 54.16 56.41 56.36 56.17 55.82 55.91 55.38 53.34 53.29 53.21 52.69 52.24 51.52 50.67 49.89 50.67 50.73 49.05 47.75 50.02 50.45 49.71 47.48
50.44 50.53 52.11 52.28 51.55 52.47 52.31 52.17 54.36 55.33 55.20 54.92 55.62 55.95 55.45 54.47 54.40 55.20 54.82 53.77 54.18 53.73 55.66 56.69 55.76 54.49 54.32 54.46 53.44 52.62 52.30 52.28 52.37 51.71 51.73 48.42 50.60 50.30 50.02 50.29 51.63 51.63 50.31 47.93
51.49 52.44 51.53 50.93 51.82 52.52 52.14 52.19 53.78 54.31 54.74 54.70 54.90 55.08 55.64 55.25 55.76 55.25 54.98 54.89 52.84 54.03 55.95 54.98 54.56 54.07 54.97 54.55 54.18 53.81 53.15 52.22 52.37 52.29 52.46 52.34 52.48 53.07 52.15 50.69 51.77 51.56 50.55 49.28
53.70 53.61 52.20 52.24 54.42 51.27 52.21 54.42 54.33 53.62 53.67 53.34 53.31 53.57 53.64 53.27 52.99 52.72 53.44 53.36 54.58 52.99 54.40 54.70 54.59 54.95 55.16 55.24 55.19 54.88 53.93 53.73 52.47 52.59 52.37 53.30 53.17 54.05 53.89 52.43 50.22 49.05 49.53 49.97
53.33 49.29 51.86 52.77 52.77 53.81 55.66 54.10 54.31 53.33 52.54 53.87 52.88 53.75 54.43 54.21 53.94 53.61 52.38 54.35 54.40 54.96 54.88 54.36 53.36 53.47 55.07 55.42 55.42 56.37 55.82 55.78 52.90 55.96 55.60 53.80 53.92 54.32 52.47 51.77 49.63 49.21 49.90 49.68
MSLP
1008.61 1008.24 1008.22 1008.37 1008.77 1009.56 1010.62 1011.42 1012.22 1012.01 1012.11 1011.62 1012.05 1012.49 1012.41 1012.34 1011.97 1011.84 1011.84 1010.58 1011.37 1011.93 1012.11 1012.28 1012.49 1012.50 1013.04 1013.38 1013.56 1013.58 1013.46 1013.62 1013.74 1014.24 1014.46 1014.59 1014.90 1015.16 1015.35 1015.69 1015.88 1016.10 1016.37 1016.35
1009.01 1008.28 1007.99 1008.28 1008.51 1008.96 1009.76 1010.65 1011.13 1011.40 1011.67 1011.35 1011.54 1011.99 1012.38 1012.37 1012.31 1011.87 1012.17 1011.13 1011.45 1011.48 1012.16 1011.95 1012.64 1013.04 1012.51 1013.47 1013.66 1013.59 1013.65 1013.70 1013.87 1014.22 1014.45 1014.46 1014.37 1014.66 1014.93 1015.09 1015.27 1015.51 1015.85 1016.05
1009.82 1009.04 1008.54 1008.55 1008.10 1008.45 1009.23 1009.79 1010.38 1011.09 1010.77 1011.32 1011.95 1012.07 1012.10 1011.87 1012.06 1012.05 1012.43 1012.41 1012.04 1012.33 1012.41 1012.74 1013.07 1012.96 1013.07 1012.99 1013.06 1013.48 1013.61 1013.81 1013.68 1014.53 1014.45 1014.35 1014.23 1014.20 1014.34 1014.62 1014.85 1014.97 1015.22 1015.53
1010.45 1009.84 1009.43 1008.27 1007.79 1007.76 1008.56 1009.38 1009.81 1010.16 1010.59 1011.09 1011.50 1011.85 1012.00 1011.70 1012.07 1012.11 1012.59 1012.80 1013.09 1013.44 1013.74 1013.32 1013.41 1013.16 1013.02 1012.72 1013.07 1013.46 1013.59 1013.52 1013.80 1014.27 1014.29 1014.15 1014.15 1014.05 1013.80 1013.82 1014.20 1014.33 1014.43 1014.64
1010.79 1010.49 1009.78 1008.34 1008.15 1008.12 1008.36 1009.29 1009.58 1010.03 1010.61 1010.97 1011.50 1012.09 1012.43 1012.14 1012.35 1012.63 1012.97 1013.24 1013.31 1013.83 1013.50 1013.36 1013.36 1013.41 1013.35 1013.63 1013.72 1013.77 1013.62 1013.15 1013.45 1013.79 1013.90 1014.18 1014.09 1013.97 1013.95 1013.47 1013.59 1013.99 1013.91 1014.05
1011.05 1010.62 1009.80 1008.27 1007.54 1007.43 1007.91 1009.14 1009.51 1009.95 1010.49 1011.08 1011.77 1012.33 1012.64 1012.64 1012.93 1013.17 1013.59 1013.98 1014.19 1014.41 1014.17 1014.09 1014.26 1013.91 1013.60 1013.86 1013.75 1013.66 1013.51 1013.35 1013.46 1013.34 1013.34 1013.25 1013.55 1013.76 1013.98 1013.75 1013.61 1013.91 1014.17 1014.40
1010.48 1009.99 1008.95 1007.84 1007.28 1007.67 1008.60 1009.31 1009.15 1009.77 1010.42 1010.94 1011.60 1011.98 1012.12 1012.68 1013.20 1013.57 1013.86 1014.29 1014.56 1014.66 1014.71 1014.63 1014.46 1014.19 1013.74 1013.65 1013.71 1013.24 1012.84 1012.73 1012.89 1013.16 1013.38 1013.53 1013.84 1014.11 1014.12 1013.90 1014.02 1014.33 1014.65 1015.16
1010.18 1009.53 1008.46 1007.18 1007.70 1007.97 1008.08 1008.36 1008.75 1009.81 1010.30 1010.93 1011.24 1011.76 1012.28 1012.89 1013.43 1013.83 1014.09 1014.36 1014.55 1014.76 1014.73 1014.75 1014.55 1014.29 1014.04 1013.77 1013.77 1013.12 1012.95 1013.07 1013.34 1013.58 1013.84 1014.22 1014.08 1014.28 1014.00 1014.40 1014.44 1014.65 1015.78 1015.44
1008.74 1008.22 1007.33 1006.74 1006.83 1007.09 1007.32 1007.85 1008.64 1009.25 1010.30 1010.66 1011.22 1011.88 1012.47 1013.25 1013.73 1014.06 1014.30 1014.52 1014.57 1014.62 1014.51 1014.54 1014.51 1014.52 1014.29 1013.92 1013.49 1013.20 1013.20 1013.57 1013.84 1014.18 1014.40 1014.48 1014.56 1014.63 1014.60 1014.83 1015.34 1015.47 1016.00 1015.77
1007.88 1007.58 1007.20 1006.89 1006.84 1007.02 1007.32 1007.71 1008.48 1009.21 1009.92 1010.65 1011.46 1012.09 1012.72 1013.24 1013.83 1014.27 1014.38 1014.41 1014.48 1014.67 1014.72 1014.59 1014.53 1014.54 1014.19 1013.93 1013.54 1013.42 1013.70 1014.13 1014.40 1014.66 1015.09 1015.49 1015.62 1015.56 1015.71 1015.88 1016.16 1016.06 1016.16 1016.14
1007.60 1007.32 1007.17 1007.18 1007.05 1007.02 1007.58 1007.97 1008.59 1009.26 1009.79 1010.50 1011.27 1012.22 1012.75 1013.35 1013.80 1014.00 1014.19 1014.36 1014.44 1014.51 1014.59 1014.64 1014.63 1014.63 1014.53 1014.31 1014.02 1014.01 1014.35 1014.66 1015.17 1015.34 1015.82 1016.38 1016.68 1016.85 1016.61 1017.03 1016.93 1016.54 1016.89 1017.24
1006.98 1006.46 1006.57 1007.00 1007.02 1007.27 1007.86 1008.28 1008.59 1009.20 1009.93 1010.53 1011.02 1011.88 1012.71 1013.50 1013.76 1014.11 1014.39 1014.45 1014.49 1014.43 1014.40 1014.49 1014.52 1014.52 1014.50 1014.25 1014.28 1014.52 1014.99 1015.22 1015.65 1016.14 1016.41 1016.89 1017.19 1017.46 1017.51 1017.80 1017.33 1017.05 1017.20 1017.47
1005.83 1005.96 1006.30 1006.61 1006.85 1007.21 1007.64 1007.92 1008.45 1009.03 1009.47 1010.18 1011.02 1011.67 1012.47 1013.28 1013.80 1013.90 1014.02 1014.18 1014.18 1014.30 1014.45 1014.68 1014.69 1014.54 1014.49 1014.49 1014.61 1014.85 1015.20 1015.67 1016.06 1016.30 1016.54 1017.11 1017.32 1017.38 1017.61 1017.95 1017.89 1017.82 1017.79 1017.73
1005.43 1006.03 1006.30 1006.35 1006.80 1007.07 1007.41 1007.93 1008.44 1008.84 1009.32 1009.82 1010.68 1011.69 1012.29 1013.08 1013.69 1014.07 1014.28 1014.15 1014.09 1014.29 1014.60 1014.79 1014.84 1014.74 1014.87 1014.91 1014.95 1015.14 1015.59 1015.80 1016.15 1016.49 1016.62 1016.95 1017.50 1017.42 1017.89 1018.08 1018.33 1018.41 1018.48 1018.51
1005.46 1005.30 1005.45 1005.82 1006.60 1007.04 1007.41 1008.41 1009.17 1009.34 1009.77 1010.49 1010.88 1011.41 1012.22 1013.04 1013.59 1013.73 1013.77 1013.96 1014.26 1014.52 1014.59 1014.64 1014.62 1014.62 1014.62 1014.78 1014.94 1015.23 1015.61 1015.94 1016.42 1016.76 1016.94 1016.99 1017.32 1017.70 1018.13 1018.35 1018.73 1018.92 1019.09 1019.28
1005.19 1005.53 1005.71 1006.01 1006.69 1007.00 1007.42 1008.03 1008.78 1009.28 1009.72 1010.35 1010.91 1011.42 1011.82 1012.39 1012.96 1013.26 1013.45 1013.82 1014.22 1014.54 1014.61 1014.81 1014.95 1014.83 1014.93 1015.05 1015.16 1015.41 1015.76 1016.15 1016.46 1016.83 1016.91 1017.17 1017.37 1017.88 1017.98 1018.54 1018.92 1019.22 1019.42 1019.49
1005.30 1005.66 1005.77 1006.26 1006.78 1007.05 1007.41 1007.27 1007.81 1008.47 1009.18 1009.86 1010.20 1010.95 1011.75 1012.33 1012.83 1013.25 1013.59 1013.70 1013.80 1013.98 1014.03 1014.23 1014.45 1014.59 1014.72 1014.95 1015.29 1015.61 1015.89 1016.09 1016.34 1016.84 1016.96 1016.98 1017.40 1017.77 1018.02 1018.32 1018.57 1018.95 1019.02 1018.93
1004.60 1004.78 1005.03 1005.28 1005.69 1006.37 1006.98 1007.42 1007.60 1008.19 1008.90 1009.02 1010.00 1010.83 1011.59 1012.15 1012.51 1012.92 1013.30 1013.48 1013.72 1013.81 1013.85 1013.92 1014.03 1014.29 1014.52 1014.74 1015.02 1015.29 1015.61 1016.02 1016.38 1016.66 1016.94 1017.10 1017.27 1017.51 1017.75 1017.93 1018.41 1018.48 1018.36 1018.39
1004.43 1004.69 1004.98 1004.96 1005.15 1005.55 1005.89 1006.70 1007.07 1007.40 1008.21 1009.07 1009.91 1010.49 1010.90 1011.49 1012.04 1012.53 1012.97 1013.52 1013.72 1013.66 1013.45 1013.69 1013.91 1014.24 1014.47 1014.63 1014.92 1015.22 1015.58 1015.91 1016.16 1016.35 1016.54 1016.54 1016.68 1016.96 1017.12 1017.22 1017.45 1017.84 1018.00 1018.06
1004.09 1004.15 1004.28 1004.39 1004.95 1005.24 1005.63 1005.88 1006.46 1007.23 1007.78 1008.54 1009.46 1010.30 1010.85 1011.26 1011.75 1012.38 1012.80 1013.07 1012.91 1012.72 1012.71 1013.02 1013.54 1013.99 1014.21 1014.45 1014.71 1014.98 1015.34 1015.74 1015.97 1016.14 1016.33 1016.34 1016.41 1016.54 1016.63 1016.97 1017.18 1017.21 1017.25 1017.38
1003.55 1003.78 1004.05 1004.17 1004.72 1004.91 1005.24 1005.53 1006.22 1006.97 1007.46 1008.15 1008.90 1009.60 1010.08 1010.62 1011.29 1011.94 1012.73 1012.93 1012.32 1012.47 1012.71 1012.98 1013.25 1013.60 1013.90 1014.10 1014.36 1014.69 1014.98 1015.35 1015.58 1015.67 1015.68 1015.65 1015.82 1016.04 1016.36 1016.67 1016.66 1016.58 1016.64 1016.82
1003.15 1003.50 1003.85 1004.04 1004.64 1004.87 1005.16 1005.67 1006.04 1006.58 1007.25 1007.86 1008.49 1009.15 1009.78 1010.46 1011.13 1011.55 1011.54 1011.72 1011.45 1011.71 1012.29 1012.73 1012.86 1012.93 1013.30 1013.75 1014.09 1014.42 1014.71 1014.94 1015.20 1015.33 1015.30 1015.20 1015.27 1015.46 1015.56 1015.78 1015.90 1016.00 1015.80 1015.74
1002.93 1003.20 1003.66 1004.28 1004.70 1004.70 1005.24 1005.68 1006.09 1006.44 1007.01 1007.56 1008.07 1008.70 1009.23 1009.65 1010.27 1011.11 1011.47 1010.90 1011.27 1011.46 1011.69 1011.94 1012.05 1012.26 1012.65 1013.21 1013.51 1013.84 1014.18 1014.52 1014.74 1014.75 1014.70 1014.68 1014.53 1014.58 1014.80 1015.03 1014.96 1014.90 1015.15 1015.19
1003.00 1003.39 1003.66 1003.92 1004.49 1005.02 1005.67 1005.84 1006.03 1006.30 1006.62 1007.14 1007.58 1008.01 1008.80 1009.67 1010.19 1010.19 1010.18 1010.28 1010.46 1010.84 1011.18 1011.24 1011.53 1011.79 1012.23 1012.73 1013.02 1013.29 1013.53 1013.76 1013.88 1014.02 1014.03 1013.93 1014.09 1014.14 1014.23 1014.28 1014.16 1013.90 1014.06 1014.23
1003.14 1003.16 1003.63 1004.18 1004.78 1005.01 1005.00 1005.50 1006.13 1006.53 1006.93 1007.39 1007.74 1008.13 1008.52 1008.80 1009.14 1009.45 1009.96 1010.12 1010.27 1010.66 1010.85 1010.74 1010.96 1011.21 1011.77 1012.01 1012.32 1012.52 1012.66 1012.93 1013.21 1013.45 1013.62 1013.74 1013.78 1013.81 1013.71 1013.71 1013.71 1013.63 1013.62 1013.64
1003.28 1003.45 1003.58 1003.76 1004.01 1004.53 1005.01 1005.54 1006.15 1006.61 1007.06 1007.70 1008.05 1008.25 1008.59 1008.88 1009.20 1009.50 1009.71 1009.88 1010.03 1010.21 1010.35 1010.28 1010.37 1010.62 1010.91 1011.12 1011.36 1011.64 1011.90 1012.18 1012.44 1012.80 1012.84 1012.87 1012.97 1013.13 1013.25 1013.35 1013.53 1013.74 1013.80 1013.65
1003.55 1003.82 1003.83 1004.22 1004.42 1004.62 1004.82 1005.44 1006.21 1006.84 1007.21 1007.56 1008.17 1008.73 1009.06 1009.37 1009.59 1009.69 1009.61 1009.65 1009.61 1009.59 1009.53 1009.51 1009.71 1009.93 1010.34 1010.61 1010.93 1011.13 1011.49 1011.80 1011.93 1012.60 1012.65 1012.42 1012.45 1012.45 1012.70 1012.96 1013.28 1013.52 1013.59 1013.81
Wind_Speed
4 5 3 4 7 8 5 6 6 6 8 5 8 10 10 5 5 4 6 6 8 2 3 7 7 7 6 4 3 3 3 5 6 4 5 7 7 7 8 8 8 7 8 8
2 5 7 3 7 7 4 4 3 2 4 3 3 5 5 7 6 8 4 2 6 7 2 6 6 5 6 6 6 4 5 4 3 3 4 5 6 6 6 8 9 9 8 8
3 3 4 3 5 4 4 4 6 5 8 8 4 6 5 4 4 3 5 6 7 5 2 4 4 4 5 3 6 5 4 3 4 3 3 2 3 6 7 8 6 8 9 8
3 2 2 7 4 4 6 4 4 2 2 5 5 3 4 3 5 6 7 6 7 6 3 3 2 1 2 4 4 5 7 5 1 4 5 3 4 5 6 5 8 8 9 9
5 4 4 3 5 6 6 5 5 6 6 6 7 4 4 5 3 3 5 3 5 2 2 3 3 2 2 1 5 6 7 8 10 7 4 5 4 5 5 4 4 5 5 6
3 5 7 8 4 4 5 3 8 6 7 7 6 3 2 5 6 6 7 6 6 3 4 5 5 5 0 2 2 3 4 6 6 6 8 5 3 4 3 5 3 3 4 5
3 3 6 6 5 1 6 10 8 8 6 8 5 4 6 9 6 5 5 7 6 5 4 1 4 5 2 2 2 4 4 3 2 3 3 4 3 2 3 4 5 3 5 6
3 4 3 7 6 8 8 1 7 7 7 6 4 7 10 8 8 7 7 6 5 5 4 2 3 4 3 3 5 4 4 5 5 5 4 3 6 3 6 4 7 6 5 5
8 8 4 3 6 3 6 7 6 7 6 6 8 5 8 7 7 6 6 5 4 5 3 3 4 3 3 4 5 1 7 7 8 8 6 5 5 5 5 5 4 3 4 4
5 1 3 3 3 5 5 6 5 6 7 7 8 8 6 7 7 6 5 5 4 5 4 3 4 4 4 6 4 5 7 7 6 7 7 7 5 5 4 4 3 4 3 4
1 0 5 1 3 6 6 6 7 6 6 7 8 7 9 6 6 5 5 4 3 5 4 1 1 1 3 3 3 6 5 6 5 5 6 5 6 4 4 3 3 3 3 2
6 7 6 6 5 7 8 8 8 8 6 6 8 10 7 6 6 6 6 5 4 3 4 2 1 2 2 3 4 6 5 4 3 4 4 3 4 5 11 5 7 8 7 3
5 7 6 5 5 6 8 10 7 9 8 10 6 9 10 6 6 5 3 4 5 5 4 3 2 3 1 2 4 5 5 5 3 4 4 3 2 3 4 4 9 11 10 9
5 5 4 6 7 9 7 7 6 6 5 7 9 7 9 7 5 7 7 7 4 5 5 4 3 3 2 3 4 5 4 6 3 3 3 3 2 2 2 3 2 2 9 6
7 6 3 6 5 7 7 7 7 9 7 7 7 9 9 9 8 8 7 7 6 6 5 3 2 2 2 3 5 5 4 3 3 3 2 3 4 4 2 2 1 2 2 1
5 4 3 2 7 6 10 12 8 8 8 7 8 9 11 9 8 7 5 6 7 6 7 6 5 4 5 5 5 4 3 3 4 3 3 3 3 4 3 3 3 3 3 3
5 2 3 5 6 7 9 16 16 14 12 10 14 9 8 7 6 5 6 6 6 7 7 8 7 6 6 6 6 3 2 3 4 2 3 4 4 4 4 3 3 4 5 5
6 7 8 7 7 9 8 9 9 10 12 14 8 8 8 9 9 8 7 6 3 3 5 7 6 5 6 5 5 3 3 3 4 4 3 3 4 3 4 4 5 5 4 2
8 9 9 8 7 8 8 10 13 15 10 9 11 13 12 9 7 8 7 7 6 5 6 6 8 8 6 6 6 3 3 4 4 4 4 5 4 4 4 4 4 5 4 4
6 6 7 5 6 7 8 7 11 11 10 12 10 8 8 8 8 8 7 10 10 9 5 8 7 7 7 7 9 4 4 4 5 5 4 6 5 5 4 5 5 5 5 5
10 9 8 7 8 9 7 7 9 10 11 12 14 13 14 10 7 7 7 5 10 7 6 7 7 5 4 6 6 5 4 4 4 4 4 5 5 5 5 6 6 6 6 5
7 8 8 7 7 7 6 7 7 7 10 12 10 8 8 7 7 7 7 9 6 10 6 5 6 10 7 10 5 5 5 5 4 4 4 4 5 5 5 5 5 6 7 6
7 6 6 8 8 8 6 7 7 9 10 10 11 10 11 9 7 6 6 8 5 7 5 6 9 12 14 7 5 6 6 6 6 6 5 4 5 5 5 6 5 5 4 5
5 6 6 5 7 6 8 5 7 8 9 8 9 10 9 5 3 4 2 2 7 8 7 7 8 14 13 6 6 6 5 5 5 5 4 6 5 5 5 5 5 5 5 6
4 5 6 8 8 7 8 7 6 6 7 7 6 6 7 4 6 5 5 5 7 6 5 8 12 13 8 7 8 7 7 6 6 5 5 5 5 5 5 4 4 4 4 5
3 5 5 9 9 6 6 7 6 4 5 5 3 4 4 3 1 1 3 4 5 6 5 5 5 7 7 7 8 8 6 5 5 5 6 5 5 5 5 5 4 3 4 3
4 1 4 4 3 5 7 6 7 6 5 5 4 3 2 2 2 2 2 3 4 5 5 4 4 6 4 4 4 4 4 4 4 5 5 5 5 5 5 5 4 4 4 3
Wind_Direction
245 237 186 183 171 164 154 171 158 226 205 215 203 197 219 233 308 314 297 67 68 132 69 118 106 100 79 86 145 174 161 182 156 171 203 191 202 219 206 201 212 211 218 218
24 350 156 165 190 178 155 135 284 112 270 153 188 162 226 244 262 249 238 55 38 60 139 85 122 161 158 190 224 198 182 149 128 163 189 204 195 214 220 220 206 205 214 218
219 350 89 357 241 148 146 158 147 168 227 146 189 216 214 204 216 124 72 75 114 138 136 142 169 182 242 216 188 193 164 188 169 231 275 286 278 214 208 220 217 207 216 212
169 54 158 236 316 184 126 161 177 169 114 164 162 97 128 134 137 127 123 98 92 111 126 95 125 109 300 292 230 184 172 179 214 232 246 295 301 282 231 195 215 214 214 212
135 161 268 296 179 154 162 229 188 145 137 125 118 101 33 79 78 101 120 99 88 103 90 84 75 83 79 359 211 198 199 191 191 211 220 235 259 272 272 204 192 217 217 208
134 143 188 232 276 149 104 302 167 161 177 144 142 140 215 122 107 102 106 115 111 74 49 41 338 317 306 270 199 231 237 202 201 195 211 209 244 304 275 250 247 144 78 56
142 166 285 234 165 135 95 233 150 154 163 162 165 184 155 132 117 118 120 125 124 100 80 352 314 318 290 278 298 306 278 234 216 176 128 100 110 146 124 75 88 94 93 72
97 97 245 155 77 151 208 307 146 146 172 156 130 129 133 130 131 135 135 137 128 108 99 39 354 339 345 8 324 311 108 100 89 89 93 93 105 124 90 86 95 85 20 92
158 208 245 253 174 183 161 148 180 146 127 130 125 128 140 143 144 152 145 144 132 117 77 36 10 360 331 333 321 47 90 83 80 68 55 49 47 40 69 78 71 98 139 92
103 247 111 187 62 146 162 149 126 112 134 138 135 146 138 145 151 151 154 143 142 115 86 37 11 349 341 319 318 90 84 86 78 78 71 45 39 27 29 41 105 92 75 75
78 28 86 35 258 173 132 104 113 131 147 150 135 155 159 160 159 158 148 146 154 136 124 96 44 15 345 344 73 86 88 91 84 83 82 77 63 27 52 44 330 63 78 92
208 203 149 185 194 151 143 167 175 145 137 157 160 155 135 147 175 168 165 165 167 145 120 118 5 70 51 48 94 107 105 87 91 103 100 103 111 97 62 54 53 69 71 90
195 174 139 140 154 154 166 172 160 155 165 167 144 148 153 156 171 181 189 191 159 156 140 139 126 79 39 90 113 111 116 126 124 121 121 138 141 125 122 56 64 56 57 58
108 133 90 140 183 177 156 171 146 154 122 153 145 144 147 145 143 168 188 200 169 144 154 158 156 147 153 136 123 120 122 135 133 151 139 143 172 132 133 137 139 65 40 51
215 201 147 116 129 180 153 130 154 154 145 142 161 150 152 154 167 196 194 177 161 156 152 161 176 225 171 143 120 119 125 119 131 142 152 148 130 119 120 106 112 126 100 61
173 171 61 79 160 164 168 157 158 172 168 148 163 172 177 174 175 192 183 161 144 185 184 177 194 206 167 148 142 137 147 181 160 155 144 130 126 143 136 149 164 184 198 198
124 205 193 246 201 173 199 177 179 181 182 174 187 168 157 165 168 172 191 192 186 193 196 178 201 189 177 169 168 176 169 150 162 156 175 171 170 180 180 178 188 201 213 204
199 208 198 193 193 180 176 200 184 169 186 194 150 152 156 164 186 187 188 184 195 239 205 211 186 188 190 189 185 180 187 178 161 181 198 220 228 225 208 203 210 213 217 205
191 200 204 206 211 204 180 180 185 186 174 156 153 183 183 179 178 179 162 167 194 204 237 198 198 178 198 203 172 172 177 186 196 218 220 224 230 228 220 210 217 224 212 195
210 207 214 208 192 178 194 172 171 169 174 168 174 145 173 190 177 170 165 192 198 205 191 195 184 189 197 206 185 179 180 180 196 218 233 219 213 220 221 233 231 229 219 208
206 202 207 185 198 193 188 158 152 173 178 171 169 179 190 190 176 160 157 200 233 214 206 202 185 202 197 191 187 191 198 199 215 233 247 216 208 210 200 215 223 219 219 206
170 171 193 173 171 169 174 173 163 149 164 172 178 159 146 174 169 189 207 201 225 191 183 201 204 206 198 194 188 188 195 208 225 244 253 235 211 209 216 211 223 226 215 204
158 159 159 154 178 167 150 159 158 152 154 164 163 164 179 186 175 164 216 230 205 199 193 203 208 204 201 190 197 201 203 198 210 224 221 228 221 202 199 209 216 221 237 225
146 157 183 159 119 128 142 193 166 165 168 166 175 173 154 150 219 236 277 142 197 192 209 213 207 208 189 197 196 199 202 206 207 213 220 201 201 196 198 209 222 196 205 218
219 172 149 148 160 188 160 149 129 139 148 160 164 166 170 181 167 199 193 212 218 204 226 230 216 208 198 199 200 208 210 198 202 196 204 209 216 215 221 225 240 242 225 218
181 195 178 178 179 159 147 146 154 158 136 145 160 163 172 181 193 207 199 201 203 203 222 231 218 201 204 205 206 209 205 209 198 215 213 215 209 200 207 211 226 231 238 218
56 73 120 95 91 147 155 149 143 169 173 162 121 88 115 136 179 210 241 262 255 253 245 232 209 196 201 188 190 185 183 186 168 258 251 220 206 197 200 196 183 196 175 167